Regional Weather Roundup
Issued by NWS

Home | Current Version | Previous Version | Graphics & Text | Print | Product List | Glossary On
Versions: 1 2 3 4 5 6 7 8 9 10 11 12 13 14 15 16 17 18 19 20 21 22 23 24 25 26 27 28 29 30 31 32 33 34 35 36 37 38 39 40 41 42 43 44 45 46 47 48 49 50
000
ASUS43 KDMX 301407
RWRIA

WEATHER ROUNDUP FOR IOWA
NATIONAL WEATHER SERVICE DES MOINES IA
900 AM CDT TUE SEP 30 2014

NOTE: "FAIR" INDICATES FEW OR NO CLOUDS BELOW 12,000 FEET WITH NO
SIGNIFICANT WEATHER AND/OR OBSTRUCTIONS TO VISIBILITY.

* - THESE STATIONS ARE NOT NWS STATIONS...THUS NOT UNDER NWS
QUALITY CONTROL.  THEY ALSO DO NOT REPORT WEATHER SUCH
AS PRECIPITATION OR FOG.

IAZ001>003-012>014-020>022-031>034-043>046-301500-
   NORTHWEST IOWA

CITY           SKY/WX    TMP DP  RH WIND       PRES   REMARKS
CARROLL *      FOG       57  57 100 SE9       29.94S VSB 1/4
CHEROKEE *     CLOUDY    54  54 100 SE9       29.91F FOG
DENISON *      PTSUNNY   59  59 100 E8        29.89S
LE MARS *      CLOUDY    57  55  94 SE8G15    29.88F
ORANGE CITY *  CLOUDY    57  54  88 SE12G17   29.88F
SHELDON *      CLOUDY    54  52  94 SE13      29.90R FOG
SIOUX CITY     CLOUDY    60  57  89 SE10      29.86F
SPENCER        CLOUDY    52  51  97 E15       29.94F FOG
STORM LAKE *   FOG       54  54 100 SE12G22   29.93F VSB 0
$$

IAZ055>058-069>071-079>083-090>094-301500-
   SOUTHWEST IOWA

CITY           SKY/WX    TMP DP  RH WIND       PRES   REMARKS
ATLANTIC *     MOSUNNY   61  59  94 E5        29.91F FOG
AUDUBON *      CLOUDY    57  54  88 SE8       29.94S FOG
CLARINDA *     SUNNY     64  59  82 CALM      29.93F
COUNCIL BLFS * CLOUDY    63  61  94 SE6G13    29.88S
CRESTON *      FOG       59  59 100 E10       29.95F VSB 1/4
HARLAN  *      SUNNY     61  61 100 SE5       29.94S FOG
LAMONI         FOG       60  60 100 E6        29.95S VSB 1
RED OAK *      SUNNY     64  59  82 VRB7      29.91S FOG
SHENANDOAH *   PTSUNNY   66  59  77 SE5       29.90S
$$

IAZ047>049-059>061-072>074-084-301500-
   CENTRAL IOWA

CITY           SKY/WX    TMP DP  RH WIND       PRES   REMARKS
AMES           CLOUDY    56  54  93 E9        29.99R
ANKENY *       CLOUDY    57  57 100 SE12      29.98S
CHARITON *     FOG       59  59 100 E8        29.97S VSB 0
DES MOINES     CLOUDY    59  56  89 E8        29.97S FOG
GRINNELL*      CLOUDY    54  52  94 E10       30.01S
KNOXVILLE *    CLOUDY    55  54  94 E8        29.97S FOG
MARSHALLTOWN   CLOUDY    53  51  93 E14       30.00S
PELLA *        CLOUDY    55  55 100 SE8       30.00S FOG
PERRY *        CLOUDY    57  57 100 E9        29.96F FOG
$$

IAZ004>006-015-016-023>025-035-036-301500-
   NORTH CENTRAL IOWA

CITY           SKY/WX    TMP DP  RH WIND       PRES   REMARKS
ALGONA *       CLOUDY    52  50  93 SE12      29.99R
CLARION *      CLOUDY    52  52 100 SE10      29.99S
ESTHERVILLE    FOG       50  50 100 E15       29.96F VSB 1/4
FORT DODGE *   CLOUDY    54  50  87 SE13      29.98F
MASON CITY     CLOUDY    49  47  93 E14G20    30.03F
FOREST CITY *  CLOUDY    48  48 100 E10       30.01S FOG
IOWA FALLS *   CLOUDY    54  52  94 E14       30.01S FOG
$$

IAZ007>011-017>019-026>030-037>042-050>054-066-301500-
   NORTHEAST IOWA

CITY           SKY/WX    TMP DP  RH WIND       PRES   REMARKS
CHARLES CITY * CLOUDY    50  46  87 E12       30.04S
CLINTON *      CLOUDY    52  46  82 E12       30.08S
DECORAH *      CLOUDY    48  45  87 E9        30.05S
MONTICELLO *   CLOUDY    50  48  93 NE9       30.05S
OELWEIN *      CLOUDY    50  50 100 E8        30.05R FOG
WATERLOO       CLOUDY    52  49  89 E14       30.02S
$$

IAZ064-065-067-068-078-301500-
   EAST CENTRAL IOWA

CITY           SKY/WX    TMP DP  RH WIND       PRES   REMARKS
IOWA CITY      CLOUDY    54  50  86 E13       30.04S
MT. PLEASANT * CLOUDY    55  54  94 E10       30.01S
MUSCATINE *    CLOUDY    55  50  82 E10       30.03S
$$

IAZ062-063-075>077-085>089-095>099-301500-
   SOUTHEAST IOWA

CITY           SKY/WX    TMP DP  RH WIND       PRES   REMARKS
BURLINGTON     CLOUDY    57  55  93 E8        30.01R FOG
FAIRFIELD *    CLOUDY    57  54  88 E13       30.00S
FORT MADISON * CLOUDY    59  57  94 E7        30.01S FOG
KEOKUK *       FOG       57  57 100 NE9G16    29.99S VSB 1/2
OSKALOOSA *    CLOUDY    57  55  94 E9        30.00F FOG
CENTERVILLE *  FOG       59  59 100 E7        29.99S VSB 1/4
OTTUMWA        FOG       57  56  96 E13       29.98S VSB 1
WASHINGTON *   CLOUDY    55  55 100 E10       30.01F FOG
$$

ABBREVIATIONS USED IN REMARKS
   TC - TEMPERATURES IN CELSIUS
  WCI - WIND CHILL INDEX
   HX - HEAT INDEX
  VSB - VISIBILITY
$$



USA.gov is the U.S. government's official web portal to all federal, state and local government web resources and services.